Regional Weather Roundup
Issued by NWS

Home | Current Version | Previous Version | Graphics & Text | Print | Product List | Glossary On
Versions: 1 2 3 4 5 6 7 8 9 10 11 12 13 14 15 16 17 18 19 20 21 22 23 24 25 26 27 28 29 30 31 32 33 34 35 36 37 38 39 40 41 42 43 44 45 46 47 48 49 50
515
ASUS43 KDMX 062303
RWRIA

WEATHER ROUNDUP FOR IOWA
NATIONAL WEATHER SERVICE DES MOINES IA
500 PM CST SAT FEB 06 2016

NOTE: "FAIR" INDICATES FEW OR NO CLOUDS BELOW 12,000 FEET WITH NO
SIGNIFICANT WEATHER AND/OR OBSTRUCTIONS TO VISIBILITY.

* - THESE STATIONS ARE NOT NWS STATIONS...THUS NOT UNDER NWS
QUALITY CONTROL.  THEY ALSO DO NOT REPORT WEATHER SUCH
AS PRECIPITATION OR FOG.

IAZ001>003-012>014-020>022-031>034-043>046-070000-
   NORTHWEST IOWA

CITY           SKY/WX    TMP DP  RH WIND       PRES   REMARKS
CARROLL *      PTCLDY    34  28  80 SW17G23   30.02F WCI  23
CHEROKEE *     MOCLDY    36  28  75 S14       29.96F WCI  27
DENISON *      MOCLDY    36  28  75 S16G22    29.98F WCI  26
LE MARS *      CLEAR     36  30  80 S16       29.94F WCI  26
ORANGE CITY *  CLEAR     34  30  86 S21       29.91F WCI  22
SHELDON *      CLEAR     34  28  80 S16       29.90F WCI  23
SIOUX CITY     CLOUDY    38  26  62 S16       29.96F WCI  29
SPENCER        CLOUDY    35  26  69 S21       29.91F WCI  24
STORM LAKE *   CLEAR     34  30  86 S21       29.95F WCI  22
$$

IAZ055>058-069>071-079>083-090>094-070000-
   SOUTHWEST IOWA

CITY           SKY/WX    TMP DP  RH WIND       PRES   REMARKS
ATLANTIC *     PTCLDY    37  28  70 SW14      30.07F WCI  29
AUDUBON *      CLOUDY    36  28  75 S16       30.06F WCI  26
CLARINDA *     CLEAR     43  32  65 SW12      30.13F
COUNCIL BLFS * CLOUDY    39  30  70 SW15G21   30.06F WCI  31
CRESTON *      CLEAR     37  32  81 SW10      30.11F WCI  30
HARLAN  *      CLEAR     36  28  75 S15       30.08F WCI  26
LAMONI         CLEAR     40  32  73 SW10      30.13F WCI  33
RED OAK *      CLEAR     39  34  81 SW8       30.10F WCI  34
SHENANDOAH *   CLEAR     43  36  75 SW10      30.12F
$$

IAZ047>049-059>061-072>074-084-070000-
   CENTRAL IOWA

CITY           SKY/WX    TMP DP  RH WIND       PRES   REMARKS
AMES           CLOUDY    33  28  81 S9        30.07F WCI  25
ANKENY *       CLEAR     36  30  80 S8        30.10F WCI  29
BOONE *        CLEAR     34  30  86 S13       30.04F WCI  25
CHARITON *     CLEAR     36  32  87 SW10      30.13F WCI  28
DES MOINES     PTCLDY    37  29  72 S10       30.10F WCI  30
GRINNELL*      CLEAR     33  30  91 S8        30.11F WCI  26
KNOXVILLE *    CLEAR     37  30  75 SW7       30.12S WCI  32
MARSHALLTOWN   CLEAR     31  27  85 S9        30.08F WCI  23
NEWTON *       CLEAR     34  32  93 SW8       30.11F WCI  27
PELLA *        CLEAR     37  32  81 SW7       30.14F WCI  32
$$

IAZ004>006-015-016-023>025-035-036-070000-
   NORTH CENTRAL IOWA

CITY           SKY/WX    TMP DP  RH WIND       PRES   REMARKS
ALGONA *       PTCLDY    32  30  93 S20       29.97F WCI  20
CLARION *      CLOUDY    32  30  93 S15       30.02F WCI  22
ESTHERVILLE    CLOUDY    33  28  81 S17       29.91F WCI  22
FORT DODGE *   CLOUDY    34  27  75 S17G24    30.02F WCI  23
MASON CITY     CLOUDY    28  26  92 S14       30.02F FOG     WCI  17
FOREST CITY *  PTCLDY    30  30 100 S16       29.99F WCI  19
WEBSTER CITY * CLOUDY    34  30  86 S17       30.01F WCI  23
IOWA FALLS *     N/A     31  28  91 S14       30.06F WCI  20
$$

IAZ007>011-017>019-026>030-037>042-050>054-066-070000-
   NORTHEAST IOWA

CITY           SKY/WX    TMP DP  RH WIND       PRES   REMARKS
CEDAR RAPIDS   CLEAR     34  32  92 W6        30.12F WCI  29
CHARLES CITY * CLOUDY    28  28 100 S16       30.05F FOG     WCI  17
CLINTON *      CLEAR     33  30  88 N7        30.15S WCI  27
DECORAH *      CLOUDY    28  28 100 S7        30.05F WCI  21
DUBUQUE        CLOUDY    31  27  85 SW6       30.12F WCI  25
MONTICELLO *   PTCLDY    32  30  93 S3        30.13S
OELWEIN *      CLOUDY    30  28  93 SW14      30.10F WCI  20
WATERLOO       CLOUDY    30  26  85 S12       30.09F WCI  20
$$

IAZ064-065-067-068-078-070000-
   EAST CENTRAL IOWA

CITY           SKY/WX    TMP DP  RH WIND       PRES   REMARKS
DAVENPORT      CLOUDY    38  32  79 W3        30.14F
IOWA CITY      CLEAR     39  31  72 SW5       30.15S
MT. PLEASANT * CLEAR     46  34  61 SW8       30.14F
MUSCATINE *    PTCLDY    43  30  61 SW5       30.15S
QUAD CITIES    CLEAR     39  29  67 W7        30.14F WCI  34
$$

IAZ062-063-075>077-085>089-095>099-070000-
   SOUTHEAST IOWA

CITY           SKY/WX    TMP DP  RH WIND       PRES   REMARKS
BURLINGTON     CLEAR     44  30  57 W8        30.14F
FAIRFIELD *    CLEAR     43  30  61 SW10      30.13S
FORT MADISON * PTCLDY    46  30  53 SW7       30.15F
KEOKUK *       CLEAR     46  30  53 SW9       30.14F
OSKALOOSA *      N/A     37  32  81 W6        30.14S WCI  33
OTTUMWA        CLEAR     40  31  70 W8        30.13F WCI  34
WASHINGTON *   CLEAR     41  34  75 W7        30.15R
$$

ABBREVIATIONS USED IN REMARKS
   TC - TEMPERATURES IN CELSIUS
  WCI - WIND CHILL INDEX
   HX - HEAT INDEX
  VSB - VISIBILITY
$$





USA.gov is the U.S. government's official web portal to all federal, state and local government web resources and services.